GW3602 Weather Reports


Display with metric or nautical units.
time (UTC)temp
F
wind
direction
speed
MPH
gust
MPH
rain 1hr
in
rain 24hr
in
rain mn
in
humidity
%
barometer
mb
20260503201519 58 319 2.0 9.0 0.00 0.00 0.00 40 1012.9
20260503200026 58 230 2.0 12.0 0.00 0.00 0.00 41 1013.1
20260503194525 59 257 4.0 14.0 0.00 0.00 0.00 39 1013.3
20260503193011 59 209 3.0 8.0 0.00 0.00 0.00 38 1013.5
20260503191532 60 256 3.0 12.0 0.00 0.00 0.00 41 1013.7
20260503190027 59 146 4.0 14.0 0.00 0.00 0.00 39 1013.8
20260503184524 58 323 8.0 14.0 0.00 0.00 0.00 37 1013.9
20260503183029 58 304 7.0 12.0 0.00 0.00 0.00 38 1014.1
20260503181510 58 214 3.0 11.0 0.00 0.00 0.00 44 1014.2
20260503180017 58 322 3.0 12.0 0.00 0.00 0.00 43 1014.3
20260503174521 58 284 5.0 13.0 0.00 0.00 0.00 41 1014.5
20260503173022 58 328 3.0 9.0 0.00 0.00 0.00 44 1014.7
20260503171526 57 243 3.0 17.0 0.00 0.00 0.00 45 1014.9
20260503081533 34 226 0.0 1.0 0.00 0.13 0.00 81 1016.1
20260503071523 35 139 0.0 2.0 0.00 0.13 0.00 80 1016.1
20260503054533 35 112 0.0 1.0 0.00 0.15 0.00 79 1016.4
20260503053031 35 213 0.0 1.0 0.00 0.15 0.00 78 1016.5
20260503051515 36 216 0.0 1.0 0.00 0.15 0.00 76 1016.4
20260503050020 36 195 0.0 1.0 0.00 0.15 0.00 75 1016.5
20260503044536 36 218 0.0 1.0 0.00 0.15 0.00 73 1016.6
20260503043033 37 216 0.0 1.0 0.00 0.16 0.00 71 1016.6
20260503041526 37 157 0.0 0.0 0.00 0.16 0.00 70 1016.6
20260503040018 38 278 0.0 1.0 0.00 0.16 0.00 70 1016.8
20260503034520 38 280 0.0 1.0 0.00 0.16 0.16 71 1016.7
20260503033024 39 281 0.0 1.0 0.00 0.16 0.16 70 1016.9
20260503031525 39 281 0.0 1.0 0.00 0.16 0.16 69 1017.0
20260503030034 39 281 0.0 0.0 0.00 0.16 0.16 68 1017.0
20260503024520 39 281 0.0 1.0 0.00 0.16 0.16 68 1017.1
20260503023021 38 289 0.0 1.0 0.00 0.16 0.16 68 1017.3
20260503021525 38 302 0.0 0.0 0.00 0.16 0.16 69 1017.2
20260503020026 39 302 0.0 0.0 0.00 0.16 0.16 68 1017.2
20260503014526 39 302 0.0 1.0 0.00 0.16 0.16 68 1017.2
20260503013010 38 305 0.0 0.0 0.00 0.16 0.16 67 1017.2
20260503011506 39 305 0.0 0.0 0.00 0.16 0.16 66 1017.2
20260503010008 40 305 0.0 0.0 0.00 0.16 0.16 65 1017.0
20260503004513 40 305 0.0 0.0 0.00 0.16 0.16 65 1017.1
20260503003019 40 305 0.0 1.0 0.00 0.16 0.16 64 1017.0
20260503001506 41 278 0.0 1.0 0.00 0.16 0.16 64 1017.0
20260503000006 41 271 0.0 1.0 0.00 0.16 0.16 63 1016.9
20260502234508 41 269 0.0 1.0 0.00 0.16 0.16 62 1016.7
20260502233026 41 250 1.0 3.0 0.00 0.16 0.16 62 1016.8
20260502231517 41 270 1.0 3.0 0.00 0.16 0.16 62 1016.8
20260502230002 41 316 1.0 6.0 0.00 0.16 0.16 62 1016.9
20260502224506 41 43 1.0 5.0 0.00 0.16 0.16 63 1016.9
20260502223009 41 268 1.0 3.0 0.00 0.16 0.16 63 1016.9
20260502221516 41 246 1.0 6.0 0.00 0.16 0.16 63 1017.0
20260502220023 41 295 3.0 6.0 0.00 0.16 0.16 62 1017.0
20260502214504 41 295 3.0 6.0 0.00 0.16 0.16 61 1016.9
20260502213008 42 273 3.0 9.0 0.00 0.16 0.16 59 1016.9
20260502211509 43 306 5.0 9.0 0.00 0.16 0.16 58 1016.6
20260502210016 43 305 3.0 11.0 0.00 0.16 0.16 58 1016.5
20260502204520 44 320 3.0 7.0 0.00 0.16 0.16 56 1016.5
20260502203026 45 299 7.0 11.0 0.00 0.16 0.16 51 1016.4